QPF
0.00 0.00 0.01 0.01 0.00 0.00 0.00 0.00 0.00 0.00 0.00 0.00 0.01 0.01 0.01 0.02 0.02 0.02 0.00 0.00 0.00 0.00 0.00 0.00 0.00 0.00 0.00 0.00 0.00 0.00 0.00 0.00 0.00 0.00 0.00 0.00 0.00 0.00 0.01 0.01 0.01 0.00 0.00
0.00 0.00 0.00 0.01 0.00 0.00 0.01 0.00 0.00 0.00 0.00 0.00 0.01 0.01 0.02 0.07 0.05 0.00 0.00 0.00 0.00 0.00 0.00 0.00 0.00 0.00 0.00 0.00 0.00 0.00 0.00 0.00 0.00 0.00 0.00 0.00 0.00 0.00 0.01 0.00 0.01 0.01 0.00
0.00 0.00 0.00 0.01 0.01 0.01 0.00 0.00 0.00 0.01 0.01 0.00 0.00 0.01 0.06 0.06 0.04 0.01 0.00 0.00 0.00 0.00 0.00 0.00 0.00 0.00 0.00 0.00 0.00 0.00 0.00 0.00 0.00 0.00 0.00 0.00 0.00 0.00 0.00 0.00 0.00 0.00 0.01
0.00 0.00 0.00 0.01 0.01 0.01 0.00 0.00 0.00 0.02 0.00 0.00 0.00 0.01 0.04 0.04 0.02 0.00 0.00 0.00 0.00 0.00 0.00 0.00 0.00 0.00 0.00 0.00 0.00 0.00 0.00 0.00 0.00 0.00 0.00 0.00 0.00 0.00 0.00 0.00 0.00 0.00 0.00
0.00 0.00 0.00 0.01 0.02 0.01 0.00 0.00 0.01 0.02 0.00 0.00 0.00 0.00 0.01 0.01 0.00 0.00 0.00 0.00 0.00 0.00 0.00 0.00 0.00 0.00 0.00 0.00 0.00 0.00 0.00 0.00 0.00 0.00 0.00 0.00 0.00 0.00 0.00 0.00 0.00 0.00 0.00
0.00 0.00 0.00 0.03 0.03 0.00 0.00 0.00 0.01 0.02 0.00 0.00 0.00 0.00 0.00 0.00 0.00 0.00 0.00 0.00 0.00 0.00 0.00 0.00 0.00 0.00 0.00 0.00 0.00 0.00 0.00 0.00 0.00 0.00 0.00 0.00 0.00 0.00 0.00 0.00 0.00 0.00 0.00
0.00 0.00 0.01 0.04 0.01 0.00 0.00 0.00 0.03 0.01 0.00 0.00 0.00 0.00 0.00 0.00 0.00 0.00 0.00 0.00 0.00 0.00 0.00 0.00 0.00 0.00 0.00 0.00 0.00 0.00 0.00 0.00 0.00 0.00 0.00 0.00 0.00 0.00 0.00 0.00 0.00 0.00 0.00
0.01 0.01 0.01 0.04 0.00 0.00 0.00 0.00 0.03 0.01 0.00 0.00 0.00 0.00 0.00 0.00 0.00 0.00 0.00 0.00 0.00 0.00 0.00 0.00 0.00 0.00 0.00 0.00 0.00 0.00 0.00 0.00 0.00 0.00 0.00 0.00 0.00 0.00 0.00 0.00 0.00 0.00 0.00
0.01 0.00 0.00 0.02 0.00 0.00 0.00 0.00 0.02 0.01 0.01 0.00 0.00 0.00 0.00 0.00 0.00 0.00 0.00 0.00 0.00 0.00 0.00 0.00 0.00 0.00 0.00 0.00 0.00 0.00 0.00 0.00 0.00 0.00 0.00 0.00 0.00 0.00 0.00 0.00 0.00 0.00 0.00
0.03 0.02 0.01 0.00 0.00 0.00 0.00 0.00 0.01 0.02 0.01 0.00 0.00 0.00 0.00 0.00 0.00 0.00 0.00 0.00 0.00 0.00 0.00 0.00 0.00 0.00 0.00 0.00 0.00 0.00 0.00 0.00 0.00 0.00 0.00 0.00 0.00 0.00 0.00 0.00 0.00 0.00 0.00
0.08 0.11 0.02 0.00 0.00 0.00 0.00 0.00 0.01 0.02 0.03 0.01 0.00 0.00 0.00 0.00 0.00 0.00 0.00 0.00 0.00 0.00 0.00 0.00 0.00 0.00 0.00 0.00 0.00 0.00 0.00 0.00 0.00 0.00 0.00 0.00 0.00 0.00 0.00 0.00 0.00 0.00 0.00
0.03 0.04 0.07 0.00 0.00 0.00 0.00 0.00 0.00 0.00 0.02 0.01 0.00 0.00 0.00 0.00 0.00 0.00 0.00 0.00 0.00 0.00 0.00 0.00 0.00 0.00 0.00 0.00 0.00 0.00 0.00 0.00 0.00 0.00 0.00 0.00 0.00 0.00 0.00 0.00 0.00 0.00 0.00
0.10 0.04 0.04 0.01 0.00 0.00 0.00 0.00 0.00 0.00 0.00 0.00 0.00 0.00 0.00 0.00 0.00 0.00 0.00 0.00 0.00 0.00 0.00 0.00 0.00 0.00 0.00 0.00 0.00 0.00 0.00 0.00 0.00 0.00 0.00 0.00 0.00 0.00 0.00 0.00 0.00 0.00 0.00
0.11 0.14 0.06 0.03 0.01 0.00 0.00 0.00 0.00 0.00 0.00 0.00 0.00 0.00 0.00 0.00 0.00 0.00 0.00 0.00 0.00 0.00 0.00 0.00 0.00 0.00 0.00 0.00 0.00 0.00 0.00 0.00 0.00 0.00 0.00 0.00 0.00 0.00 0.00 0.00 0.00 0.00 0.00
0.08 0.07 0.01 0.01 0.00 0.01 0.00 0.00 0.00 0.00 0.00 0.00 0.00 0.00 0.00 0.00 0.00 0.00 0.00 0.00 0.00 0.00 0.00 0.00 0.00 0.00 0.00 0.00 0.00 0.00 0.00 0.00 0.00 0.00 0.00 0.00 0.00 0.00 0.00 0.00 0.00 0.00 0.00
0.15 0.13 0.02 0.00 0.01 0.08 0.04 0.00 0.00 0.00 0.00 0.00 0.00 0.00 0.00 0.00 0.00 0.00 0.00 0.00 0.00 0.00 0.00 0.00 0.00 0.00 0.00 0.00 0.00 0.00 0.00 0.00 0.00 0.00 0.00 0.00 0.00 0.00 0.00 0.00 0.00 0.00 0.00
0.05 0.05 0.04 0.00 0.01 0.03 0.05 0.02 0.00 0.00 0.00 0.00 0.00 0.00 0.00 0.00 0.00 0.00 0.00 0.00 0.00 0.00 0.00 0.00 0.00 0.00 0.00 0.00 0.00 0.00 0.00 0.00 0.00 0.00 0.00 0.00 0.00 0.00 0.00 0.00 0.00 0.00 0.01
0.07 0.02 0.00 0.00 0.00 0.01 0.00 0.01 0.03 0.02 0.01 0.00 0.00 0.00 0.00 0.00 0.00 0.00 0.00 0.00 0.00 0.00 0.00 0.00 0.00 0.00 0.00 0.00 0.00 0.00 0.00 0.00 0.00 0.00 0.00 0.00 0.00 0.00 0.00 0.00 0.00 0.01 0.03
0.02 0.00 0.00 0.00 0.00 0.01 0.00 0.00 0.00 0.01 0.01 0.00 0.00 0.00 0.01 0.01 0.00 0.00 0.00 0.00 0.00 0.00 0.00 0.00 0.00 0.00 0.00 0.00 0.00 0.00 0.00 0.00 0.00 0.00 0.00 0.00 0.00 0.00 0.00 0.00 0.00 0.01 0.00
0.01 0.04 0.05 0.00 0.01 0.01 0.04 0.03 0.00 0.00 0.00 0.00 0.00 0.00 0.00 0.01 0.00 0.00 0.00 0.00 0.00 0.00 0.00 0.00 0.00 0.00 0.00 0.00 0.00 0.00 0.00 0.00 0.00 0.00 0.00 0.00 0.00 0.00 0.00 0.00 0.00 0.00 0.00
0.12 0.09 0.02 0.04 0.11 0.02 0.01 0.00 0.00 0.00 0.00 0.00 0.00 0.01 0.01 0.01 0.01 0.00 0.00 0.00 0.00 0.00 0.00 0.00 0.00 0.00 0.00 0.00 0.00 0.00 0.00 0.00 0.00 0.00 0.00 0.00 0.00 0.00 0.00 0.00 0.00 0.00 0.00
0.06 0.03 0.10 0.01 0.08 0.07 0.01 0.05 0.02 0.03 0.05 0.07 0.13 0.11 0.05 0.04 0.02 0.01 0.01 0.00 0.02 0.01 0.01 0.00 0.00 0.00 0.00 0.00 0.00 0.00 0.00 0.00 0.00 0.00 0.00 0.00 0.00 0.00 0.00 0.00 0.00 0.00 0.00
0.02 0.00 0.01 0.10 0.18 0.26 0.27 0.38 0.29 0.29 0.27 0.33 0.41 0.22 0.17 0.27 0.30 0.26 0.20 0.16 0.18 0.20 0.17 0.13 0.09 0.03 0.01 0.00 0.00 0.00 0.00 0.00 0.00 0.00 0.00 0.00 0.00 0.00 0.00 0.00 0.00 0.00 0.00
0.00 0.00 0.02 0.15 0.11 0.09 0.17 0.16 0.10 0.18 0.21 0.13 0.19 0.28 0.41 0.43 0.47 0.43 0.46 0.60 0.44 0.36 0.17 0.09 0.07 0.07 0.06 0.03 0.00 0.00 0.00 0.00 0.00 0.00 0.00 0.00 0.00 0.00 0.00 0.00 0.00 0.00 0.00
0.00 0.00 0.00 0.01 0.01 0.01 0.06 0.11 0.09 0.07 0.07 0.06 0.07 0.06 0.06 0.08 0.15 0.26 0.35 0.39 0.26 0.11 0.05 0.05 0.07 0.06 0.03 0.03 0.01 0.00 0.00 0.00 0.00 0.00 0.00 0.00 0.00 0.00 0.00 0.00 0.00 0.00 0.00
0.00 0.00 0.00 0.00 0.00 0.01 0.12 0.06 0.11 0.08 0.16 0.18 0.10 0.01 0.00 0.00 0.01 0.06 0.08 0.08 0.06 0.05 0.05 0.05 0.03 0.02 0.01 0.00 0.00 0.00 0.00 0.00 0.00 0.00 0.00 0.00 0.00 0.00 0.00 0.00 0.00 0.00 0.00
MSLP
1012.06 1012.13 1012.52 1012.90 1013.38 1013.81 1014.09 1014.41 1014.55 1014.76 1014.84 1014.89 1014.98 1015.18 1015.47 1015.80 1016.08 1016.38 1016.69 1016.95 1017.19 1017.34 1017.40 1017.44 1017.64 1017.74 1017.90 1018.10 1018.23 1018.40 1018.43 1018.38 1018.52 1018.57 1018.64 1018.65 1018.55 1018.51 1018.54 1018.47 1018.37 1018.43 1018.40
1011.63 1012.00 1012.52 1012.92 1013.39 1013.85 1014.19 1014.53 1014.85 1015.07 1015.19 1015.18 1015.17 1015.35 1015.63 1015.94 1016.21 1016.55 1016.86 1017.16 1017.35 1017.46 1017.64 1017.70 1017.90 1018.02 1018.23 1018.45 1018.56 1018.67 1018.68 1018.80 1018.89 1018.99 1018.98 1019.00 1018.83 1018.79 1018.81 1018.71 1018.59 1018.49 1018.57
1011.67 1012.04 1012.58 1013.02 1013.49 1013.94 1014.37 1014.75 1015.09 1015.32 1015.51 1015.56 1015.45 1015.61 1015.90 1016.17 1016.39 1016.72 1017.04 1017.38 1017.58 1017.73 1017.83 1017.91 1018.12 1018.28 1018.59 1018.68 1018.80 1018.87 1018.99 1019.12 1019.20 1019.32 1019.37 1019.45 1019.40 1019.23 1019.20 1019.24 1019.14 1018.75 1018.66
1011.73 1012.18 1012.66 1013.15 1013.61 1014.03 1014.49 1014.93 1015.21 1015.52 1015.80 1015.91 1015.91 1015.96 1016.15 1016.41 1016.62 1017.03 1017.35 1017.60 1017.83 1018.04 1018.17 1018.27 1018.44 1018.69 1018.75 1018.77 1018.91 1019.06 1019.23 1019.41 1019.52 1019.65 1019.81 1019.82 1019.67 1019.55 1019.56 1019.48 1019.43 1019.42 1019.17
1012.00 1012.37 1012.80 1013.23 1013.71 1014.13 1014.61 1015.02 1015.36 1015.60 1016.03 1016.25 1016.28 1016.32 1016.47 1016.65 1016.94 1017.31 1017.65 1017.87 1018.10 1018.42 1018.60 1018.76 1018.93 1019.00 1019.01 1019.02 1019.15 1019.35 1019.52 1019.72 1019.89 1020.01 1020.10 1020.10 1020.02 1019.80 1019.81 1019.88 1019.82 1019.69 1019.61
1012.24 1012.58 1012.97 1013.39 1013.83 1014.27 1014.73 1015.12 1015.48 1015.78 1016.27 1016.53 1016.65 1016.71 1016.76 1017.00 1017.34 1017.60 1017.97 1018.18 1018.40 1018.64 1018.81 1019.03 1019.19 1019.30 1019.38 1019.41 1019.52 1019.66 1019.86 1020.02 1020.18 1020.31 1020.28 1020.15 1020.13 1019.95 1019.98 1020.02 1020.02 1019.97 1019.93
1012.52 1012.77 1013.18 1013.52 1013.99 1014.46 1014.85 1015.21 1015.54 1015.95 1016.39 1016.72 1016.88 1017.02 1017.14 1017.32 1017.72 1018.06 1018.38 1018.56 1018.69 1018.87 1019.06 1019.29 1019.47 1019.62 1019.68 1019.77 1019.84 1019.96 1020.14 1020.30 1020.41 1020.55 1020.55 1020.43 1020.25 1020.13 1020.19 1020.27 1020.29 1020.27 1020.27
1012.61 1013.00 1013.37 1013.69 1014.14 1014.58 1014.98 1015.36 1015.72 1016.02 1016.51 1016.80 1017.06 1017.16 1017.38 1017.65 1018.05 1018.47 1018.75 1018.93 1019.08 1019.22 1019.41 1019.57 1019.71 1019.90 1019.96 1020.01 1020.09 1020.17 1020.32 1020.48 1020.64 1020.74 1020.74 1020.63 1020.40 1020.37 1020.41 1020.46 1020.47 1020.51 1020.51
1012.60 1013.19 1013.57 1013.97 1014.38 1014.72 1015.13 1015.51 1015.94 1016.20 1016.58 1016.90 1017.30 1017.51 1017.68 1017.93 1018.33 1018.74 1018.97 1019.14 1019.30 1019.47 1019.66 1019.83 1019.93 1020.07 1020.18 1020.26 1020.31 1020.37 1020.42 1020.52 1020.77 1020.90 1020.88 1020.86 1020.55 1020.49 1020.57 1020.62 1020.64 1020.71 1020.72
1013.07 1013.44 1013.69 1014.13 1014.55 1015.02 1015.34 1015.68 1016.06 1016.50 1016.78 1017.12 1017.55 1017.85 1018.04 1018.29 1018.55 1018.84 1019.16 1019.29 1019.43 1019.61 1019.76 1019.90 1020.01 1020.12 1020.27 1020.37 1020.48 1020.57 1020.62 1020.74 1020.82 1020.88 1020.90 1020.92 1020.66 1020.60 1020.67 1020.72 1020.74 1020.76 1020.81
1013.45 1013.71 1013.72 1014.18 1014.75 1015.25 1015.55 1015.85 1016.22 1016.50 1016.94 1017.24 1017.82 1018.21 1018.48 1018.71 1018.88 1019.08 1019.37 1019.48 1019.59 1019.73 1019.95 1020.10 1020.20 1020.25 1020.32 1020.42 1020.50 1020.56 1020.60 1020.80 1020.90 1020.91 1020.94 1020.86 1020.70 1020.58 1020.65 1020.72 1020.73 1020.81 1020.84
1013.86 1013.93 1013.94 1014.19 1014.69 1015.15 1015.54 1016.06 1016.45 1016.77 1017.10 1017.38 1017.99 1018.47 1018.78 1018.99 1019.16 1019.32 1019.46 1019.58 1019.75 1019.87 1020.04 1020.19 1020.33 1020.42 1020.51 1020.70 1020.74 1020.74 1020.88 1020.86 1020.90 1020.88 1020.85 1020.81 1020.73 1020.54 1020.60 1020.71 1020.74 1020.82 1020.86
1013.72 1013.90 1014.10 1014.27 1014.86 1015.20 1015.53 1016.00 1016.54 1017.01 1017.34 1017.58 1018.00 1018.55 1018.88 1019.15 1019.32 1019.54 1019.71 1019.80 1019.92 1020.03 1020.18 1020.34 1020.52 1020.67 1020.78 1020.81 1020.85 1020.88 1020.87 1020.91 1021.00 1020.89 1020.74 1020.69 1020.69 1020.52 1020.42 1020.55 1020.66 1020.73 1020.74
1013.22 1013.77 1013.73 1014.00 1014.57 1015.23 1015.81 1015.96 1016.42 1017.03 1017.47 1017.77 1018.04 1018.54 1018.91 1019.22 1019.46 1019.61 1019.75 1019.94 1020.09 1020.19 1020.39 1020.52 1020.75 1020.78 1020.84 1020.81 1020.82 1020.85 1020.85 1020.87 1020.87 1020.79 1020.66 1020.59 1020.57 1020.47 1020.32 1020.28 1020.33 1020.54 1020.62
1012.40 1012.94 1013.19 1013.49 1013.74 1014.90 1015.82 1016.30 1016.31 1016.90 1017.39 1017.79 1018.15 1018.46 1018.76 1019.00 1019.24 1019.42 1019.58 1019.80 1019.99 1020.14 1020.41 1020.57 1020.67 1020.81 1020.86 1020.85 1020.75 1020.67 1020.56 1020.52 1020.53 1020.55 1020.50 1020.42 1020.43 1020.38 1020.23 1020.09 1020.04 1020.00 1020.10
1012.67 1013.04 1013.63 1013.89 1012.99 1013.58 1015.51 1016.12 1016.58 1016.64 1017.01 1017.65 1018.09 1018.32 1018.58 1018.76 1019.05 1019.26 1019.39 1019.57 1019.73 1019.91 1020.10 1020.22 1020.40 1020.54 1020.68 1020.72 1020.60 1020.48 1020.34 1020.26 1020.21 1020.19 1020.16 1020.11 1020.05 1020.06 1020.04 1019.86 1019.71 1019.77 1019.66
1012.53 1013.40 1014.16 1013.75 1013.07 1013.06 1014.20 1015.35 1015.74 1016.12 1016.79 1017.29 1017.49 1017.95 1018.28 1018.56 1018.92 1019.18 1019.29 1019.40 1019.35 1019.54 1019.86 1020.15 1020.23 1020.34 1020.48 1020.47 1020.44 1020.21 1020.19 1020.15 1020.05 1019.95 1019.84 1019.76 1019.65 1019.60 1019.61 1019.59 1019.44 1019.38 1019.47
1012.85 1013.31 1013.87 1012.58 1012.00 1012.69 1012.89 1014.34 1015.05 1015.45 1016.26 1016.74 1017.09 1017.08 1017.56 1017.86 1018.23 1018.80 1019.08 1019.16 1019.11 1019.31 1019.54 1019.88 1020.23 1020.28 1020.28 1020.27 1020.15 1019.98 1019.81 1019.77 1019.59 1019.43 1019.34 1019.34 1019.39 1019.34 1019.30 1019.11 1019.14 1019.12 1019.16
1012.15 1012.78 1013.39 1012.91 1012.48 1012.57 1013.10 1014.50 1014.98 1014.90 1015.29 1015.76 1016.22 1016.62 1017.05 1017.28 1017.74 1018.35 1018.51 1018.51 1018.85 1019.16 1019.42 1019.50 1019.82 1019.90 1019.97 1019.88 1019.85 1019.63 1019.41 1019.22 1018.98 1018.96 1018.99 1019.01 1019.05 1019.06 1019.10 1018.91 1018.89 1018.98 1018.96
1011.99 1012.50 1012.53 1013.12 1013.19 1013.84 1013.97 1014.54 1014.78 1014.91 1014.85 1015.60 1016.10 1016.13 1016.43 1016.60 1016.95 1017.63 1018.09 1018.26 1018.60 1019.01 1019.19 1019.33 1019.46 1019.69 1019.63 1019.39 1019.25 1019.35 1019.11 1019.07 1018.85 1018.89 1018.89 1018.94 1018.92 1018.69 1018.71 1018.68 1018.65 1018.73 1018.70
1011.87 1012.15 1012.21 1012.78 1013.22 1013.94 1014.38 1015.09 1015.10 1014.83 1015.04 1015.65 1015.78 1015.78 1015.66 1015.83 1016.14 1016.65 1017.24 1017.63 1018.15 1018.67 1018.70 1018.81 1019.18 1019.31 1019.35 1019.08 1019.19 1019.17 1019.08 1018.82 1018.84 1018.88 1018.89 1018.92 1018.84 1018.60 1018.39 1018.59 1018.75 1018.78 1018.76
1011.64 1012.01 1012.29 1012.26 1012.78 1012.81 1013.63 1014.34 1014.52 1014.74 1015.00 1015.30 1015.24 1015.34 1015.31 1015.65 1015.40 1015.94 1016.54 1017.07 1017.48 1018.00 1018.35 1018.53 1018.57 1019.06 1018.91 1018.95 1019.27 1019.48 1019.47 1019.30 1018.96 1018.82 1018.82 1019.00 1019.04 1018.88 1018.63 1018.57 1018.68 1018.88 1019.12
1011.34 1011.55 1011.75 1011.81 1012.19 1012.63 1013.12 1014.08 1014.48 1014.86 1015.23 1015.29 1015.25 1015.25 1015.68 1016.02 1016.14 1016.35 1016.67 1016.80 1017.06 1017.60 1018.10 1018.18 1018.38 1018.63 1018.72 1018.89 1019.03 1019.21 1019.71 1019.87 1019.81 1019.16 1018.91 1019.02 1019.07 1018.97 1018.96 1019.12 1019.09 1019.01 1019.26
1011.10 1011.46 1011.70 1011.90 1012.06 1012.15 1012.71 1013.18 1013.71 1014.38 1014.94 1014.96 1014.99 1014.57 1015.10 1015.26 1015.92 1016.35 1016.56 1016.99 1017.16 1017.54 1018.01 1018.41 1018.62 1018.90 1018.90 1019.07 1019.30 1019.49 1019.64 1020.15 1020.21 1019.93 1019.35 1019.21 1019.38 1019.32 1019.23 1019.29 1019.41 1019.55 1019.51
1011.14 1011.21 1011.55 1011.62 1011.91 1012.10 1012.35 1012.83 1013.33 1013.65 1013.73 1013.80 1014.25 1014.33 1014.95 1014.67 1015.26 1015.91 1016.06 1017.02 1016.80 1017.44 1017.98 1018.42 1018.49 1018.85 1019.04 1019.29 1019.53 1019.80 1020.06 1020.17 1020.28 1020.44 1020.10 1019.71 1019.66 1019.56 1019.63 1019.66 1019.66 1019.87 1019.96
1011.22 1011.35 1011.52 1011.79 1011.99 1012.24 1012.43 1012.80 1013.15 1013.25 1013.58 1013.90 1014.14 1014.37 1014.91 1015.55 1015.99 1015.49 1015.47 1016.14 1017.27 1017.83 1018.27 1018.44 1018.67 1018.91 1019.08 1019.30 1019.71 1020.16 1020.42 1020.39 1020.35 1020.41 1020.44 1020.21 1020.05 1019.89 1019.84 1020.04 1020.05 1020.10 1020.15
Thickness
5762 5764 5762 5760 5758 5756 5755 5754 5753 5752 5751 5752 5751 5750 5749 5747 5744 5741 5739 5737 5734 5733 5732 5731 5730 5728 5726 5724 5723 5721 5721 5721 5720 5720 5718 5717 5717 5717 5716 5715 5716 5714 5713
5764 5762 5760 5758 5755 5752 5752 5751 5749 5747 5747 5748 5748 5748 5746 5744 5743 5740 5737 5734 5732 5731 5730 5729 5727 5725 5723 5721 5720 5719 5718 5718 5717 5716 5716 5715 5714 5714 5713 5713 5713 5713 5711
5760 5758 5756 5754 5752 5749 5747 5746 5744 5743 5742 5742 5744 5744 5743 5742 5741 5738 5735 5731 5729 5728 5727 5727 5725 5723 5721 5720 5719 5718 5716 5715 5715 5713 5713 5712 5710 5710 5710 5709 5708 5709 5708
5754 5753 5752 5750 5748 5746 5744 5741 5740 5738 5737 5738 5738 5739 5739 5738 5737 5734 5732 5729 5727 5725 5724 5723 5722 5720 5719 5719 5717 5716 5714 5713 5712 5711 5710 5709 5708 5708 5707 5706 5705 5703 5703
5748 5748 5746 5745 5743 5742 5740 5738 5736 5735 5733 5732 5733 5734 5734 5733 5732 5730 5728 5726 5724 5721 5720 5718 5717 5716 5716 5716 5715 5713 5712 5710 5709 5708 5708 5707 5706 5705 5704 5702 5701 5701 5699
5740 5741 5740 5740 5738 5737 5735 5734 5732 5731 5729 5727 5728 5729 5730 5728 5726 5726 5723 5723 5721 5719 5717 5715 5714 5713 5712 5712 5711 5710 5709 5708 5707 5706 5706 5705 5704 5703 5701 5700 5698 5697 5695
5732 5734 5734 5733 5732 5731 5730 5730 5729 5726 5725 5723 5723 5723 5724 5723 5721 5719 5718 5717 5717 5715 5714 5711 5710 5709 5708 5708 5707 5706 5705 5704 5704 5703 5702 5702 5701 5700 5698 5696 5694 5693 5691
5725 5726 5726 5727 5727 5726 5725 5725 5723 5723 5720 5720 5718 5719 5719 5717 5715 5713 5712 5712 5711 5711 5709 5708 5707 5705 5705 5704 5704 5704 5703 5701 5700 5700 5699 5699 5698 5696 5695 5693 5691 5690 5688
5718 5717 5720 5720 5720 5720 5720 5719 5717 5717 5716 5716 5713 5713 5714 5713 5710 5708 5707 5707 5707 5706 5705 5704 5704 5703 5702 5701 5701 5701 5701 5700 5699 5697 5696 5696 5695 5694 5692 5690 5688 5686 5684
5708 5709 5712 5713 5713 5713 5713 5713 5713 5710 5711 5710 5708 5708 5708 5708 5707 5705 5702 5703 5703 5702 5701 5701 5701 5700 5699 5698 5698 5698 5698 5697 5696 5695 5694 5693 5692 5691 5689 5687 5686 5683 5681
5697 5702 5706 5708 5707 5706 5707 5708 5707 5706 5705 5706 5703 5701 5701 5702 5702 5701 5700 5700 5699 5699 5697 5697 5696 5697 5697 5697 5695 5695 5696 5695 5694 5693 5691 5690 5689 5689 5687 5685 5684 5681 5678
5684 5692 5698 5700 5701 5702 5702 5702 5702 5700 5700 5700 5698 5695 5695 5696 5696 5696 5696 5696 5696 5696 5695 5694 5693 5693 5693 5693 5692 5692 5691 5691 5691 5690 5689 5687 5686 5686 5684 5682 5680 5678 5676
5679 5686 5691 5695 5694 5696 5697 5698 5696 5695 5694 5695 5694 5692 5691 5691 5692 5692 5692 5692 5692 5691 5692 5691 5690 5689 5689 5689 5688 5688 5687 5687 5687 5687 5686 5685 5683 5683 5682 5680 5678 5675 5673
5677 5679 5687 5689 5689 5689 5688 5692 5692 5689 5688 5689 5689 5687 5688 5687 5687 5688 5688 5688 5688 5687 5687 5686 5685 5684 5684 5685 5685 5685 5685 5684 5684 5684 5684 5683 5681 5680 5679 5678 5676 5672 5670
5684 5681 5683 5685 5689 5685 5682 5682 5685 5684 5683 5682 5682 5683 5683 5684 5684 5684 5685 5685 5684 5684 5682 5682 5681 5680 5679 5680 5681 5683 5683 5683 5682 5681 5681 5680 5679 5677 5677 5675 5674 5672 5669
5679 5682 5678 5678 5692 5690 5680 5678 5676 5678 5678 5677 5677 5678 5679 5680 5680 5680 5682 5683 5683 5682 5680 5680 5679 5678 5676 5676 5678 5679 5680 5680 5680 5680 5678 5677 5677 5675 5674 5673 5672 5669 5667
5673 5670 5666 5677 5691 5694 5685 5677 5677 5677 5674 5673 5677 5677 5676 5676 5675 5674 5677 5679 5682 5681 5678 5675 5675 5675 5674 5673 5674 5675 5675 5675 5676 5676 5675 5675 5674 5673 5671 5669 5668 5666 5663
5664 5666 5663 5684 5692 5692 5694 5684 5680 5679 5674 5672 5675 5679 5677 5677 5675 5672 5672 5673 5675 5674 5673 5671 5669 5669 5669 5669 5670 5671 5672 5672 5672 5672 5672 5672 5670 5667 5667 5667 5664 5663 5660
5664 5662 5660 5673 5682 5688 5689 5680 5681 5683 5678 5675 5678 5680 5677 5677 5675 5670 5670 5672 5670 5669 5667 5667 5665 5665 5664 5665 5665 5667 5669 5670 5669 5669 5668 5669 5667 5665 5663 5662 5660 5658 5656
5662 5663 5669 5668 5671 5671 5674 5675 5673 5677 5680 5674 5675 5679 5677 5677 5676 5670 5668 5668 5665 5662 5662 5661 5660 5659 5660 5662 5664 5662 5664 5664 5664 5663 5664 5662 5661 5662 5660 5658 5657 5653 5651
5662 5664 5669 5665 5666 5663 5663 5659 5664 5671 5675 5672 5671 5672 5675 5676 5675 5672 5669 5664 5661 5657 5658 5658 5655 5654 5653 5657 5656 5655 5657 5659 5659 5657 5655 5654 5654 5655 5656 5652 5648 5645 5643
5659 5660 5661 5665 5665 5669 5666 5662 5665 5666 5669 5670 5673 5669 5670 5669 5672 5669 5665 5662 5659 5655 5652 5651 5652 5646 5648 5648 5644 5643 5641 5645 5648 5650 5649 5644 5643 5643 5643 5642 5639 5635 5630
5654 5659 5662 5666 5668 5666 5668 5660 5657 5657 5657 5660 5664 5664 5659 5658 5658 5658 5656 5655 5654 5649 5644 5645 5643 5641 5641 5641 5639 5636 5629 5629 5631 5639 5640 5637 5635 5635 5633 5628 5626 5625 5620
5654 5657 5659 5663 5665 5668 5665 5660 5661 5654 5649 5652 5653 5662 5660 5657 5654 5650 5651 5646 5643 5639 5637 5635 5635 5634 5634 5631 5628 5626 5625 5620 5621 5625 5630 5628 5625 5625 5623 5619 5616 5612 5609
5650 5653 5655 5659 5660 5662 5664 5660 5657 5655 5658 5660 5657 5656 5653 5657 5653 5649 5650 5642 5640 5638 5632 5629 5628 5626 5624 5622 5619 5616 5613 5609 5608 5609 5612 5613 5613 5611 5609 5607 5605 5600 5596
5642 5646 5649 5652 5654 5654 5655 5654 5652 5653 5652 5649 5648 5646 5645 5641 5638 5644 5647 5640 5631 5625 5621 5620 5618 5616 5614 5611 5606 5601 5600 5600 5598 5595 5596 5597 5596 5598 5596 5592 5590 5588 5585